Flag for Germany Weather past 2 weeks in Filderstadt, Baden-Württemberg, Germany

Now
50 °F

Overcast.


Feels Like: N/A
Forecast: 47 / 67 °F
Wind: N/A

Location: Stuttgart-Echterdingen

Current Time: May 23, 2015 at 8:36:13 AM

Latest Report: May 23, 2015 at 8:00 AM


Visibility: 22 mi

Pressure: 30.14 "Hg

Humidity: 74%

Dew point: 42 °F

Location of FilderstadtLocation

Historic Weather in Filderstadt — Graph

°F

Filderstadt temperature yesterday

Maximum temperature yesterday: 64 °F (at 4:00 PM)
Minimum temperature yesterday: 37 °F (at 6:00 AM)
Average temperature yesterday: 53 °F

Past Weeks' High & Low Weather Summary

 TemperatureHumidityPressure
High84 °F (May 12, 5:00 PM)98% (May 16, 7:00 AM)30.36 "Hg (May 16, 7:00 AM)
Low37 °F (May 22, 6:00 AM)27% (May 12, 4:00 PM)29.71 "Hg (May 18, 7:00 PM)
Average58 °F65%30.08 "Hg
* Reported May 8 7:00 AM — May 23 7:00 AM, Filderstadt, Weather by CustomWeather, © 2015

Note: Actual official high and low records may vary slightly from our data, if they occured in-between our weather recording intervals... More about our weather records

Advertising

Filderstadt weather history for previous 24 hours

 ConditionsComfort  
Time TempWeatherWind HumidityBarometerVisibility
7:00 AM
Sat, May 23
46 °FPartly sunny.1 mph87%30.14 "Hg31 mi
5:00 AM45 °FPassing clouds.1 mph79%30.14 "Hg34 mi
4:00 AM46 °FPassing clouds.2 mph76%30.14 "Hg34 mi
3:00 AM46 °FPassing clouds.2 mph76%30.16 "Hg37 mi
2:00 AM48 °FPassing clouds.2 mph67%30.17 "Hg40 mi
1:00 AM52 °FPassing clouds.1 mph55%30.17 "Hg40 mi
12:00 AM54 °FPassing clouds.2 mph53%30.17 "Hg40 mi
11:00 PM
Fri, May 22
55 °FPassing clouds.3 mph50%30.18 "Hg40 mi
10:00 PM56 °FPassing clouds.3 mph47%30.18 "Hg40 mi
9:00 PM58 °FPartly sunny.3 mph43%30.16 "Hg43 mi
8:00 PM61 °FPartly sunny.3 mph38%30.15 "Hg43 mi
7:00 PM63 °FPartly sunny.6 mph34%30.15 "Hg43 mi
6:00 PM64 °FPartly sunny.5 mph32%30.16 "Hg40 mi
5:00 PM64 °FPartly sunny.6 mph31%30.17 "Hg40 mi
4:00 PM64 °FScattered clouds.3 mph27%30.19 "Hg40 mi
3:00 PM63 °FScattered clouds.5 mph35%30.21 "Hg37 mi
2:00 PM62 °FScattered clouds.3 mph36%30.23 "Hg37 mi
1:00 PM60 °FScattered clouds.5 mph41%30.26 "Hg31 mi
12:00 PM58 °FScattered clouds.3 mph44%30.29 "Hg28 mi
10:00 AM54 °FPassing clouds.2 mph59%30.32 "Hg25 mi
9:00 AM49 °FPassing clouds.1 mph76%30.33 "Hg25 mi
8:00 AM45 °FPassing clouds.1 mph81%30.34 "Hg25 mi
Weather by CustomWeather, © 2015

See weather overviewHow to use our weather pages